Terminal Aerodrome Forecast
Issued by NWS

Home | Current Version | Previous Version | Text Only | Print | Product List | Glossary On
Versions: 1 2 3 4 5 6 7 8 9 10 11 12 13 14
000
FTUS42 TJSJ 230500
TAFJPS
TAF
TJPS 230533Z 2306/2406 05002KT P6SM VCTS FEW020CB BKN040
      TEMPO 2306/2310 VRB12KT 5SM -TSRA BKN022CB OVC050
     FM231030 09005KT P6SM VCSH SCT022 BKN050
     FM231330 13011KT P6SM -RA SCT025 BKN070=

USA.gov is the U.S. government's official web portal to all federal, state and local government web resources and services.